Weather History for Guatemala Aeropuertola Aurora, Guatemala

Change the Weather History Date:

Tuesday, July 23, 2013

  Actual Average Record
Temperature  
Mean Temperature 70 °F -  
Max Temperature 78 °F 75 °F - ()
Min Temperature 62 °F 60 °F - ()
Cooling Degree Days 5    
Growing Degree Days 20 (Base 50)    
Moisture  
Dew Point 61 °F    
Average Humidity 83    
Maximum Humidity 100    
Minimum Humidity 52    
Precipitation  
Precipitation 1.46 in - - ()
Sea Level Pressure  
Sea Level Pressure 30.25 in    
Wind  
Wind Speed 10 mph ()    
Max Wind Speed 16 mph    
Max Gust Speed -    
Visibility 5.4 miles    
Events Rain , Thunderstorm    
T = Trace of Precipitation, MM = Missing Value Source: Averaged Metar Reports

Daily Weather History Graph

Daily Weather History Graph

Search for Another Location

Airport:

Trip Planner

Search our weather history database for the weather conditions in past years. The results will help you decide how hot, cold, wet, or windy it might be!

Date:

Astronomy

Jul. 23, 2013 Rise Set
Actual Time 5:43 AM CST 6:33 PM CST
Civil Twilight 5:20 AM CST 6:56 PM CST
Nautical Twilight 4:53 AM CST 7:23 PM CST
Astronomical Twilight 4:25 AM CST 7:51 PM CST
Moon 7:27 PM CST (7/23) 6:32 AM CST (7/23)
Length of Visible Light 13h 36m
Length of Day
12h 50m
Full, 99% of the Moon is Illuminated
Jul 23
Full
Jul 29
Last Quarter
Aug 6
New
Aug 14
First Quarter
Aug 20
Full

Hourly Weather History & Observations

Time (CST) Temp. Dew Point Humidity Pressure Visibility Wind Dir Wind Speed Gust Speed Precip Events Conditions
12:00 AM 64.4 °F 62.6 °F 94% 30.33 in 6.2 mi North 13.8 mph - N/A   Mostly Cloudy
1:00 AM 64.4 °F 62.6 °F 94% 30.30 in 6.2 mi North 11.5 mph - N/A   Scattered Clouds
2:00 AM 64.4 °F 62.6 °F 94% 30.27 in 6.2 mi North 11.5 mph - N/A   Overcast
3:00 AM 64.4 °F 62.6 °F 94% 30.27 in 6.2 mi North 11.5 mph - N/A   Overcast
4:00 AM 64.4 °F 60.8 °F 88% 30.27 in 6.2 mi North 11.5 mph - N/A   Mostly Cloudy
5:00 AM 64.4 °F 60.8 °F 88% 30.27 in 6.2 mi North 11.5 mph - N/A   Scattered Clouds
6:00 AM 64 °F 61 °F 87% 29.95 in 25 mi North 9.2 mph - -   Partly Cloudy
6:00 AM 64.4 °F 60.8 °F 88% 30.27 in 6.2 mi North 9.2 mph - N/A   Scattered Clouds
7:00 AM 64.4 °F 60.8 °F 88% 30.30 in 6.2 mi North 11.5 mph - N/A   Mostly Cloudy
8:00 AM 66.2 °F 60.8 °F 83% 30.30 in 6.2 mi North 13.8 mph - N/A   Light Drizzle
8:24 AM - - N/A% - 6.2 mi North 16.1 mph - N/A   Mostly Cloudy
9:00 AM 68.0 °F 60.8 °F 78% 30.33 in 6.2 mi North 16.1 mph - N/A   Mostly Cloudy
10:00 AM 69.8 °F 60.8 °F 73% 30.30 in 6.2 mi North 16.1 mph - N/A   Mostly Cloudy
11:00 AM 71.6 °F 60.8 °F 69% 30.30 in 6.2 mi NNE 13.8 mph - N/A   Scattered Clouds
12:00 PM 74 °F 60 °F 52% 29.97 in 25 mi NNE 13.8 mph - -   Partly Cloudy
12:00 PM 73.4 °F 59.0 °F 61% 30.30 in 6.2 mi NNE 13.8 mph - N/A   Mostly Cloudy
1:00 PM 75.2 °F 59.0 °F 57% 30.27 in 6.2 mi NNE 13.8 mph - N/A   Overcast
2:00 PM 77.0 °F 60.8 °F 57% 30.24 in 6.2 mi NNE 11.5 mph - N/A   Mostly Cloudy
3:00 PM 77.0 °F 60.8 °F 57% 30.24 in 5.0 mi NE 6.9 mph - N/A Thunderstorm Thunderstorm
3:42 PM - - N/A% - 6.2 mi SW 6.9 mph - N/A   Scattered Clouds
4:00 PM 69.8 °F 60.8 °F 73% 30.21 in 6.2 mi SW 9.2 mph - N/A   Scattered Clouds
4:35 PM - - N/A% - 6.2 mi South 9.2 mph - N/A Rain , Thunderstorm Light Thunderstorms and Rain
4:43 PM - - N/A% - 1.9 mi SSE 9.2 mph - N/A Rain , Thunderstorm Heavy Thunderstorms and Rain
5:00 PM 64.4 °F 62.6 °F 94% 30.27 in 0.5 mi East 9.2 mph - N/A Rain , Thunderstorm Heavy Thunderstorms and Rain
5:25 PM - - N/A% - 1.2 mi NNE 4.6 mph - N/A Rain , Thunderstorm Heavy Thunderstorms and Rain
6:00 PM 62 °F 62 °F 99% 29.98 in 2 mi 3.5 mph - - Rain Rain
6:00 PM 62.6 °F 62.6 °F 100% 30.27 in 1.9 mi Variable 2.3 mph - N/A Rain Rain
6:40 PM - - N/A% - 5.0 mi Variable 3.5 mph - N/A   Drizzle
7:00 PM 62.6 °F 62.6 °F 100% 30.27 in 5.6 mi NNE 4.6 mph - N/A   Light Drizzle
7:16 PM - - N/A% - 6.2 mi North 6.9 mph - N/A   Light Drizzle
7:35 PM - - N/A% - 6.2 mi North 6.9 mph - N/A   Mostly Cloudy
8:00 PM 62.6 °F 60.8 °F 94% 30.30 in 6.2 mi North 6.9 mph - N/A   Light Drizzle
9:00 PM 62.6 °F 60.8 °F 94% 30.30 in 6.2 mi NNE 6.9 mph - N/A   Light Drizzle
9:20 PM - - N/A% - 6.2 mi North 11.5 mph - N/A   Overcast
10:00 PM 62.6 °F 60.8 °F 94% 30.33 in 6.2 mi North 11.5 mph - N/A   Overcast
11:00 PM 62.6 °F 60.8 °F 94% 30.33 in 6.2 mi NNE 11.5 mph - N/A   Mostly Cloudy